Home   Weather   Murmansk   Past weeks

Flag for Russia Past Weather in Murmansk, Russia — Yesterday and Last 2 Weeks

Now
14 °F

Sunny.


Feels Like: 3 °F
Forecast: 9 / 16 °F
Wind: 8 mph from Southeast

Location: Murmansk Airport

Current Time: Feb 22, 2017 at 3:51:06 pm

Latest Report: Feb 22, 2017 at 3:30 pm


Visibility: 10 mi

Pressure: 29.15 "Hg

Humidity: 79%

Dew Point: 9 °F

Location of MurmanskLocation

Past Weather in Murmansk — Graph

°F

Murmansk Temperature Yesterday

Maximum temperature yesterday: 14 °F (at 1:30 pm)
Minimum temperature yesterday: 7 °F (at 10:30 am)
Average temperature yesterday: 11 °F

High & Low Weather Summary for the Past Weeks

 TemperatureHumidityPressure
High39 °F (Feb 13, 7:30 pm)93% (Feb 12, 4:30 pm)30.89 "Hg (Feb 12, 4:30 pm)
Low-17 °F (Feb 20, 3:00 am)64% (Feb 14, 6:00 am)29.09 "Hg (Feb 20, 10:00 pm)
Average16 °F81%29.90 "Hg
* Reported Feb 7 2:00 pm — Feb 22 2:30 pm, Murmansk, Weather by CustomWeather, © 2017

Note: Actual official high and low records may vary slightly from our data, if they occured in-between our weather recording intervals... More about our weather records

Advertising

Murmansk Weather History for the Previous 24 Hours

Scroll right to see more
 ConditionsComfort  
Time TempWeatherWind HumidityBarometerVisibility
2:30 pm
Wed, Feb 22
16 °FSunny.8 mph73%29.15 "Hg10 mi
2:00 pm14 °FSunny.8 mph85%29.15 "Hg10 mi
1:30 pm14 °FSunny.8 mph85%29.15 "Hg10 mi
1:00 pm10 °FSunny.3 mph85%29.15 "Hg10 mi
12:30 pm7 °FSunny.1 mph78%29.15 "Hg10 mi
12:00 pm7 °FSunny.3 mph78%29.15 "Hg10 mi
11:30 am7 °FSunny.3 mph85%29.15 "Hg10 mi
11:00 am5 °FSunny.3 mph78%29.15 "Hg10 mi
10:30 am7 °FSunny.3 mph78%29.15 "Hg10 mi
10:00 am5 °FSunny.3 mph85%29.15 "Hg10 mi
9:30 am7 °FSunny.3 mph85%29.15 "Hg10 mi
9:00 am7 °FSunny.3 mph78%29.15 "Hg10 mi
8:30 am3 °FClear.3 mph85%29.15 "Hg10 mi
8:00 am0 °FClear.1 mph84%29.15 "Hg10 mi
7:30 am0 °FClear.1 mph78%29.18 "Hg10 mi
7:00 am-2 °FClear.1 mph77%29.18 "Hg10 mi
6:30 am-4 °FClear.No wind77%29.18 "Hg10 mi
6:00 am-4 °FClear.1 mph77%29.18 "Hg10 mi
5:30 am-4 °FClear.1 mph84%29.18 "Hg10 mi
5:00 am-4 °FClear.1 mph84%29.18 "Hg10 mi
4:30 am-2 °FClear.1 mph77%29.18 "Hg10 mi
4:00 am-4 °FClear.No wind77%29.18 "Hg10 mi
3:30 am0 °FClear.1 mph78%29.18 "Hg10 mi
3:00 am0 °FClear.No wind84%29.18 "Hg10 mi
2:30 am1 °FPassing clouds.1 mph85%29.18 "HgN/A
2:00 am1 °FPassing clouds.3 mph85%29.18 "HgN/A
1:30 am3 °FPassing clouds.3 mph85%29.21 "HgN/A
1:00 am3 °FPassing clouds.1 mph78%29.21 "HgN/A
12:30 am7 °FPassing clouds.1 mph78%29.18 "HgN/A
12:00 am12 °FSnow flurries. Passing clouds.1 mph85%29.18 "HgN/A
11:30 pm
Tue, Feb 21
12 °FSnow flurries. Passing clouds.No wind85%29.18 "HgN/A
11:00 pm12 °FSnow flurries. Passing clouds.1 mph85%29.21 "HgN/A
10:30 pm14 °FSnow flurries. Passing clouds.3 mph79%29.21 "HgN/A
10:00 pm14 °FSnow flurries. Passing clouds.1 mph85%29.18 "HgN/A
9:30 pm14 °FSnow flurries. Passing clouds.1 mph85%29.18 "Hg6 mi
9:00 pm14 °FSnow flurries. Passing clouds.3 mph85%29.18 "Hg5 mi
8:30 pm14 °FSnow flurries. Passing clouds.3 mph85%29.18 "Hg4 mi
8:00 pm14 °FSnow flurries. Passing clouds.3 mph85%29.18 "HgN/A
7:30 pm14 °FSnow flurries. Passing clouds.1 mph85%29.18 "HgN/A
7:00 pm12 °FSnow flurries. Passing clouds.3 mph85%29.18 "HgN/A
6:30 pm10 °FPassing clouds.1 mph85%29.18 "HgN/A
6:00 pm9 °FPassing clouds.1 mph78%29.18 "HgN/A
5:30 pm9 °FPassing clouds.No wind85%29.18 "HgN/A
5:00 pm7 °FScattered clouds.1 mph85%29.18 "HgN/A
4:30 pm9 °FScattered clouds.1 mph85%29.18 "HgN/A
4:00 pm9 °FScattered clouds.3 mph85%29.18 "HgN/A
3:30 pm12 °FSnow flurries. Scattered clouds.1 mph85%29.18 "HgN/A
3:00 pm12 °FSnow flurries. Partly sunny.1 mph85%29.18 "HgN/A
Weather by CustomWeather, © 2017

See weather overviewHow to use our weather pages